Погода в Выкатном

Россия / Ханты-Мансийский автономный округ - Югра     60°38′51″N   69°33′24″E
темп.,
°C
ветер,
м/с
пор.,
м/с
влажн.,
%
обл.,
%
осадки,
мм/ч
давл.,
гПа
погр.,
м
16 мая, пн
пн1623:00+11ю5977100 0.8 1002126
02:00+10ююз598384 0.1 1002166
05:00+9ююз48857 0.1 1002151
08:00+14ююз57645 0.0 1001495
11:00+18юз79495 0.3 10011761
14:00+18юз3546100 0.0 1000156
17:00+19ю343978 0.0 9982107
20:00+14юв466781 0.6 998154
17 мая, вт
вт1723:00+12ю348392 0.7 997116
02:00+10ююз3491100 0.0 99670
05:00+11юз228783 0.0 99560
08:00+13з2371100 0.0 994349
11:00+15зсз345711 0.0 995601
14:00+20зсз563376 0.0 9942623
17:00+19зсз77346 0.0 9962142
20:00+17ссз584578 0.0 997168
18 мая, ср
ср1823:00+13с225898 0.0 99910
02:00+12сз346090 0.0 100033
05:00+11св336991 0.0 100252
08:00+16ю555192 0.0 1002562
11:00+18юз675198 0.6 10031441
14:00+19ююз6845100 1.4 10031940
17:00+19ю5744100 1.4 10021513
20:00+16ююв4558100 0.1 100294
19 мая, чт
чт1923:00+13ю5973100 0.1 1001156
02:00+11ю478299 0.3 1000118
05:00+11ю4681100 0.3 999136
08:00+14ююз4460100 0.0 998439
11:00+16юз4449100 0.0 997907
14:00+18зюз2339100 0.0 9962219
17:00+15зсз2459100 0.3 996428
20:00+14ю3364100 0.5 99679
20 мая, пт
пт2023:00+12зюз5872100 1.3 996150
02:00+9зюз81285100 0.1 997386
05:00+6зюз8118874 0.2 998531
08:00+9зюз101169100 0.0 10001078
11:00+8зюз101178100 0.1 10011060
14:00+7зюз101281100 0.0 10031023
17:00+7з8118180 0.1 1004794
20:00+8з596980 0.0 1004731